Regional Weather Roundup
Issued by NWS Little Rock, AR

Home | Current Version | Previous Version | Graphics & Text | Print | Product List | Glossary On
Versions: 1 2 3 4 5 6 7 8 9 10 11 12 13 14 15 16 17 18 19 20 21 22 23 24 25 26 27
000
ASUS44 KLZK 151005
RWRLZK

WEATHER ROUNDUP FOR ARKANSAS
NATIONAL WEATHER SERVICE LITTLE ROCK AR
500 AM CDT TUE APR 15 2014

NOTE: "FAIR" INDICATES FEW OR NO CLOUDS BELOW 12,000 FEET WITH NO
SIGNIFICANT WEATHER AND/OR OBSTRUCTIONS TO VISIBILITY.

ARZ001-003-010-029-151100-
NORTHWEST ARKANSAS

CITY           SKY/WX    TMP DP  RH WIND       PRES   REMARKS
FAYETTEVILLE   CLEAR     25  25 100 CALM      30.21R
FORT SMITH     CLEAR     35  26  69 SW6       30.23S WCI  30
HARRISON       CLEAR     30  21  69 NW3       30.17R
BENTONVILLE    CLEAR     28  21  74 CALM      30.20R
ROGERS         CLEAR     29  22  75 W5        30.20R WCI  24
SILOAM SPGS    CLEAR     28  18  64 CALM      30.22R
HIGHFILL       CLEAR     30  20  66 CALM      30.19R
$$

ARZ004-005-016-151100-
NORTH CENTRAL ARKANSAS

CITY           SKY/WX    TMP DP  RH WIND       PRES   REMARKS
BATESVILLE     CLEAR     34  25  69 NW6       30.17S WCI  29
FLIPPIN        CLEAR     32  18  55 NW5       30.19R WCI  27
MTN HOME       CLEAR     29  23  78 CALM      30.17R
$$

ARZ040-041-151100-
WEST CENTRAL ARKANSAS

CITY           SKY/WX    TMP DP  RH WIND       PRES   REMARKS
MENA           CLEAR     34  25  69 CALM      30.21S
MOUNT IDA      CLEAR     34  28  79 NW3       30.18R
$$

ARZ009-017-025-026-028-151100-
NORTHEAST ARKANSAS

CITY           SKY/WX    TMP DP  RH WIND       PRES   REMARKS
CORNING        FAIR      36  27  69 N10       30.16R
JONESBORO      CLEAR     36  24  62 N8        30.15R
NEWPORT        CLEAR     34  27  76 NW10      30.19R WCI  26
BLYTHEVILLE    CLEAR     34  28  79 N18       30.13R WCI  23
$$

ARZ022-023-033-042-044-151100-
CENTRAL ARKANSAS

CITY           SKY/WX    TMP DP  RH WIND       PRES   REMARKS
LITTLE ROCK    CLEAR     36  25  64 NW8       30.20R
N LITTLE ROCK    N/A     35  27  72 NW5       30.20R WCI  31
JACKSONVILLE   CLEAR     35  26  70 W2        30.19R
SEARCY         CLEAR     35  26  70 NW5       30.20R WCI  31
HOT SPRINGS    CLEAR     36  25  64 N5        30.20R
RUSSELLVILLE   CLEAR     31  27  85 CALM      30.21R
CLINTON        FAIR      32  30  93 CALM      30.20S
$$

ARZ036-151100-
EAST ARKANSAS

CITY           SKY/WX    TMP DP  RH WIND       PRES   REMARKS
WEST MEMPHIS   PTCLDY    37  29  72 N10G21    30.13R
$$

ARZ050-053-066-070-073-151100-
SOUTHWEST ARKANSAS

CITY           SKY/WX    TMP DP  RH WIND       PRES   REMARKS
ARKADELPHIA    FAIR      39  28  65 NW6       30.23R
CAMDEN         CLEAR     34  32  93 MISG      30.22R
TEXARKANA      CLEAR     35  29  78 NW5       30.24R WCI  31
EL DORADO      CLEAR     35  32  88 NW7       30.21R WCI  29
DE QUEEN       CLEAR     31  30  96 CALM      30.23S
$$

ARZ056-057-069-151100-
SOUTHEAST ARKANSAS

CITY           SKY/WX    TMP DP  RH WIND       PRES   REMARKS
PINE BLUFF     CLEAR     38  27  64 N13       30.19R
MONTICELLO     CLEAR     39  29  67 N8        30.16R

$$





USA.gov is the U.S. government's official web portal to all federal, state and local government web resources and services.